Weather reports worldwide

Advertisment
Cagliari/Elmas, Italy (16560): temperature & dewpoint: 16.09.2018 23:00:00 - 22.09.2018 23:00:00 (CEST)Cagliari/Elmas, Italy (16560): wind speed: 16.09.2018 23:00:00 - 22.09.2018 23:00:00 (CEST)Cagliari/Elmas, Italy (16560): wind direction: 16.09.2018 23:00:00 - 22.09.2018 23:00:00 (CEST)Cagliari/Elmas, Italy (16560): reduced air pressure: 16.09.2018 23:00:00 - 22.09.2018 23:00:00 (CEST)Cagliari/Elmas, Italy (16560): visibility: 16.09.2018 23:00:00 - 22.09.2018 23:00:00 (CEST)Cagliari/Elmas, Italy (16560): precipitation: 16.09.2018 23:00:00 - 22.09.2018 23:00:00 (CEST)
Date & Time tt [°C] td [°C] ff [km/h] ff [kn] dd ppp [hPa] vv [km] rr [mm]
22.09.2018 23:00:00 20,7 15,3 15 8 N 1020,5 10 0,0
22.09.2018 22:00:00 22,0 15,0 16 9 N - 10 -
22.09.2018 21:00:00 24,0 12,0 26 14 NW - 10 -
22.09.2018 20:00:00 24,7 11,1 21 11 NNW 1019,1 10 -
22.09.2018 19:00:00 26,0 11,0 28 15 NNW - 10 -
22.09.2018 18:00:00 28,0 17,0 31 17 NNW - 10 -
22.09.2018 17:00:00 28,7 15,0 28 15 NW 1018,1 10 0,0
22.09.2018 16:00:00 30,0 16,0 31 17 NNW - 10 -
22.09.2018 15:00:00 30,0 16,0 29 16 NNW - 10 -
22.09.2018 14:00:00 29,8 17,6 26 14 NNW 1018,5 10 -
22.09.2018 13:00:00 29,0 20,0 24 13 NNW - 10 -
22.09.2018 12:00:00 28,0 20,0 21 11 NNW - 10 -
22.09.2018 11:00:00 26,7 19,7 24 13 NNW 1019,2 10 0,0
22.09.2018 10:00:00 24,0 20,0 18 10 N - 10 -
22.09.2018 09:00:00 22,0 18,0 11 6 N - 10 -
22.09.2018 08:00:00 20,3 18,6 15 8 NNW 1018,0 10 -
22.09.2018 07:00:00 21,0 19,0 21 11 N - 10 -
22.09.2018 06:00:00 21,0 19,0 13 7 N - 10 -
22.09.2018 05:00:00 20,1 18,8 11 6 N 1017,1 10 0,0
22.09.2018 04:00:00 21,0 19,0 16 9 N - 10 -
22.09.2018 03:00:00 22,0 19,0 15 8 N - 10 -
22.09.2018 02:00:00 21,5 19,4 11 6 N 1017,1 10 -
22.09.2018 01:00:00 22,0 20,0 13 7 N - 10 -
22.09.2018 00:00:00 21,0 20,0 9 5 N - 10 -
21.09.2018 23:00:00 22,3 20,1 13 7 NNW 1016,6 10 0,0
21.09.2018 22:00:00 24,0 20,0 15 8 NNW - 10 -
21.09.2018 21:00:00 24,0 19,0 11 6 NNW - 10 -
21.09.2018 20:00:00 25,4 17,9 16 9 NW 1014,2 10 -
21.09.2018 19:00:00 26,0 20,0 9 5 WNW - 10 -
21.09.2018 18:00:00 27,0 17,0 11 6 NE - 10 -
21.09.2018 17:00:00 28,3 18,6 11 6 NW 1013,5 10 0,0
21.09.2018 16:00:00 27,0 19,0 11 6 N - 10 -
21.09.2018 15:00:00 27,0 19,0 9 5 NNE - 10 -
21.09.2018 14:00:00 25,6 19,3 13 7 NW 1013,9 10 -
21.09.2018 13:00:00 26,0 19,0 15 8 NNW - 10 -
21.09.2018 12:00:00 24,0 19,0 18 10 NNW - 10 -
21.09.2018 11:00:00 24,2 19,0 16 9 NNW 1013,5 10 0,0
21.09.2018 10:00:00 22,0 19,0 15 8 NNW - 10 -
21.09.2018 09:00:00 22,0 19,0 13 7 NNW - 10 -
21.09.2018 08:00:00 21,4 18,7 13 7 NNW 1012,3 10 -
21.09.2018 07:00:00 21,0 19,0 15 8 NNW - 10 -
21.09.2018 06:00:00 21,0 19,0 15 8 NNW - 10 -
21.09.2018 05:00:00 20,4 18,8 15 8 NNW 1011,8 10 0,0
21.09.2018 04:00:00 20,0 19,0 13 7 N - 10 -
21.09.2018 03:00:00 20,0 18,0 11 6 N - 10 -
21.09.2018 02:00:00 20,3 18,5 13 7 N 1013,0 10 -
21.09.2018 01:00:00 21,0 19,0 11 6 NNW - 10 -
21.09.2018 00:00:00 22,0 19,0 11 6 NW - 10 -
20.09.2018 23:00:00 21,7 19,9 9 5 NW 1013,9 10 0,0
20.09.2018 22:00:00 22,0 21,0 11 6 N - 10 -
20.09.2018 21:00:00 23,0 21,0 13 7 WNW - 10 -
20.09.2018 20:00:00 23,1 20,3 18 10 NW 1013,2 10 -
20.09.2018 19:00:00 24,0 20,0 26 14 NNW - 3,0 -
20.09.2018 18:00:00 25,0 21,0 15 8 NW - 10 -
20.09.2018 17:00:00 24,7 21,7 18 10 N 1013,7 10 0,0
20.09.2018 16:00:00 25,0 20,0 31 17 NNW - 10 -
20.09.2018 15:00:00 29,0 18,0 18 10 NW - 10 -
20.09.2018 14:00:00 28,0 18,5 16 9 NNW 1015,2 10 -
20.09.2018 13:00:00 28,0 19,0 15 8 NNW - 10 -
20.09.2018 12:00:00 26,0 19,0 15 8 NW - 10 -
20.09.2018 11:00:00 25,1 19,7 16 9 NW 1016,8 10 0,0
20.09.2018 10:00:00 23,0 19,0 16 9 NW - 10 -
20.09.2018 09:00:00 21,0 20,0 13 7 NNW - 10 -
20.09.2018 08:00:00 20,5 19,6 11 6 NW 1016,5 10 -
20.09.2018 07:00:00 20,0 19,0 11 6 NW - 10 -
20.09.2018 06:00:00 20,0 19,0 8 4 N - 10 -
20.09.2018 05:00:00 20,4 19,7 9 5 NW 1016,3 10 0,0
20.09.2018 04:00:00 21,0 20,0 8 4 WNW - 10 -
20.09.2018 03:00:00 21,0 20,0 8 4 N - 10 -
20.09.2018 02:00:00 21,5 20,6 8 4 NNW 1017,4 - -
20.09.2018 01:00:00 22,0 21,0 8 4 NNW - 10 -
20.09.2018 00:00:00 23,0 21,0 5 3 NW - 10 -
19.09.2018 23:00:00 22,4 20,9 5 3 NW 1018,1 10 0,0
19.09.2018 22:00:00 23,0 20,0 4 2 - - 10 -
19.09.2018 21:00:00 23,0 21,0 8 4 NNW - 10 -
19.09.2018 20:00:00 22,7 21,0 11 6 NNW 1016,8 10 -
19.09.2018 19:00:00 23,0 22,0 5 3 WNW - 10 -
19.09.2018 18:00:00 23,0 20,0 5 3 NNE - 10 -
19.09.2018 17:00:00 23,4 20,6 13 7 E 1016,5 10 0,0
19.09.2018 16:00:00 23,0 21,0 13 7 SE - 10 -
19.09.2018 15:00:00 25,0 22,0 16 9 SSE - 9 -
19.09.2018 14:00:00 27,3 22,5 16 9 S 1016,4 10 -
19.09.2018 13:00:00 28,0 21,0 11 6 S - 10 -
19.09.2018 12:00:00 27,0 21,0 8 4 SW - 10 -
19.09.2018 11:00:00 25,8 21,4 8 4 SSW 1017,4 10 0,0
19.09.2018 10:00:00 24,0 21,0 4 2 - - 10 -
19.09.2018 09:00:00 22,0 20,0 5 3 N - 10 -
19.09.2018 08:00:00 20,8 19,9 5 3 N 1016,3 10 -
19.09.2018 07:00:00 20,0 20,0 9 5 N - 10 -
19.09.2018 06:00:00 21,0 20,0 8 4 N - 10 -
19.09.2018 05:00:00 20,9 20,1 8 4 NNW 1015,6 10 0,0
19.09.2018 04:00:00 22,0 21,0 4 2 WNW - 10 -
19.09.2018 03:00:00 21,0 20,0 4 2 - - 10 -
19.09.2018 02:00:00 21,5 19,8 8 4 ENE 1016,5 10 -
19.09.2018 01:00:00 22,0 20,0 4 2 - - 8 -
19.09.2018 00:00:00 24,0 22,0 13 7 SSW - 7 -
18.09.2018 23:00:00 22,2 19,2 21 11 S 1017,2 6 0,0
18.09.2018 22:00:00 25,0 22,0 5 3 SW - 10 -
18.09.2018 21:00:00 25,0 22,0 4 2 - - 10 -
18.09.2018 20:00:00 24,8 23,0 5 3 SSE 1016,5 10 -
18.09.2018 19:00:00 26,0 23,0 11 6 S - 10 -
18.09.2018 18:00:00 27,0 24,0 15 8 SSE - 10 -
18.09.2018 17:00:00 25,8 23,3 8 4 ENE 1017,5 10 0,0
18.09.2018 16:00:00 23,0 20,0 18 10 SSE - 8 -
18.09.2018 15:00:00 25,0 23,0 16 9 SSE - 10 -
18.09.2018 14:00:00 26,2 23,6 11 6 S 1018,5 10 -
18.09.2018 13:00:00 26,0 23,0 8 4 E - 10 -
18.09.2018 12:00:00 24,0 22,0 5 3 WSW - 10 -
18.09.2018 11:00:00 23,6 22,2 13 7 WNW 1019,2 10 0,0
18.09.2018 10:00:00 24,0 22,0 5 3 SE - 10 -
18.09.2018 09:00:00 24,0 22,0 5 3 WSW - 8 -
18.09.2018 08:00:00 23,2 21,2 2 1 N 1018,5 8 -
18.09.2018 07:00:00 24,0 21,0 4 2 - - 10 -
18.09.2018 06:00:00 - - - - - - - -
18.09.2018 05:00:00 24,7 22,7 11 6 SSE 1018,1 10 0,0
18.09.2018 04:00:00 25,0 23,0 11 6 SSE - 10 -
18.09.2018 03:00:00 25,0 23,0 15 8 SSE - 10 -
18.09.2018 02:00:00 24,9 23,0 15 8 SSE 1018,1 10 -
18.09.2018 01:00:00 25,0 23,0 15 8 SSE - 10 -
18.09.2018 00:00:00 25,0 22,0 13 7 S - 10 -
17.09.2018 23:00:00 24,9 21,9 13 7 SSE 1018,9 10 0,0
17.09.2018 22:00:00 25,0 22,0 11 6 SSE - 10 -
17.09.2018 21:00:00 25,0 22,0 13 7 SE - 10 -
17.09.2018 20:00:00 25,1 21,5 13 7 SSE 1017,9 10 -
17.09.2018 19:00:00 26,0 22,0 15 8 SSE - 10 -
17.09.2018 18:00:00 26,0 21,0 18 10 SSE - 10 -
17.09.2018 17:00:00 27,5 21,4 18 10 SSE 1018,9 10 0,0
17.09.2018 16:00:00 27,0 22,0 18 10 SSE - 10 -
17.09.2018 15:00:00 28,0 22,0 21 11 S - 10 -
17.09.2018 14:00:00 28,5 21,7 16 9 SSE 1020,7 10 -
17.09.2018 13:00:00 28,0 23,0 22 12 SE - 10 -
17.09.2018 12:00:00 28,0 21,0 18 10 SSE - 10 -
17.09.2018 11:00:00 26,3 22,5 11 6 S 1020,7 10 0,0
17.09.2018 10:00:00 22,0 21,0 4 2 - - 10 -
17.09.2018 09:00:00 23,0 21,0 8 4 WNW - 10 -
17.09.2018 08:00:00 21,8 20,6 4 2 NNW 1019,9 10 -
17.09.2018 07:00:00 21,0 20,0 8 4 NNE - 10 -
17.09.2018 06:00:00 22,0 21,0 9 5 WNW - 10 -
17.09.2018 05:00:00 22,2 20,2 4 2 ENE 1020,0 30 0,0
17.09.2018 04:00:00 23,0 21,0 9 5 E - 10 -
17.09.2018 03:00:00 24,0 22,0 11 6 SSE - 10 -
17.09.2018 02:00:00 24,5 22,4 11 6 SSE 1021,1 10 -
17.09.2018 01:00:00 25,0 23,0 9 5 SSE - 10 -
17.09.2018 00:00:00 24,0 22,0 8 4 ESE - 10 -
16.09.2018 23:00:00 24,6 21,9 11 6 ESE 1020,9 10 0,0

tt = temperature
td = dewpoint
ff = wind speed
dd = wind direction
ppp = reduced air pressure
vv = visibility
rr = precipitation

Next stations